Flag for Austria Weather past 2 weeks in Stockerau, Lower Austria, Austria

Now
95 °F

Sunny.


Feels Like: 91 °F
Forecast: 63 / 92 °F
Wind: 10 mph from Southeast

Location: Tulln Airport

Current Time: Aug 31, 2015 at 5:44:05 PM

Latest Report: Aug 31, 2015 at 4:50 PM


Visibility: 31 mi

Pressure: 29.86 "Hg

Humidity: 16%

Dew point: 43 °F

Location of StockerauLocation

Historic Weather in Stockerau — Graph

°F

Stockerau temperature yesterday

Maximum temperature yesterday: 97 °F (at 2:50 PM)
Minimum temperature yesterday: 68 °F (at 5:50 AM)
Average temperature yesterday: 85 °F

Past Weeks' High & Low Weather Summary

 TemperatureHumidityPressure
High97 °F (Aug 30, 2:50 PM)100% (Aug 17, 6:50 AM)30.24 "Hg (Aug 17, 6:50 AM)
Low48 °F (Aug 26, 6:50 AM)16% (Aug 31, 2:50 PM)29.74 "Hg (Aug 16, 3:50 PM)
Average71 °F67%30.03 "Hg
* Reported Aug 16 3:50 PM — Aug 31 3:50 PM, Stockerau, Weather by CustomWeather, © 2015

Note: Actual official high and low records may vary slightly from our data, if they occured in-between our weather recording intervals... More about our weather records

Advertising

Stockerau weather history for previous 24 hours

 ConditionsComfort  
Time TempWeatherWind HumidityBarometerVisibility
3:50 PM
Mon, Aug 31
95 °FSunny.13 mph16%29.89 "Hg31 mi
2:50 PM97 °FSunny.12 mph16%29.92 "Hg25 mi
1:50 PM95 °FSunny.14 mph25%29.92 "Hg19 mi
12:50 PM91 °FSunny.3 mph41%29.95 "Hg19 mi
11:50 AM86 °FSunny.3 mph52%29.98 "Hg16 mi
10:50 AM81 °FSunny.3 mph58%29.98 "Hg11 mi
10:20 AM79 °FSunny.2 mph58%30.01 "Hg11 mi
9:50 AM77 °FSunny.2 mph61%30.01 "Hg9 mi
9:20 AM73 °FSunny.2 mph69%30.01 "Hg9 mi
8:50 AM72 °FSunny.5 mph73%30.01 "Hg9 mi
8:20 AM68 °FSunny.2 mph83%30.01 "Hg7 mi
6:50 AM63 °FFog.2 mph94%30.01 "Hg7 mi
5:50 AM61 °FFog.1 mph94%29.98 "Hg7 mi
10:50 PM
Sun, Aug 30
81 °FClear.3 mph54%30.01 "Hg12 mi
9:50 PM86 °FClear.10 mph46%30.01 "Hg12 mi
8:50 PM82 °FClear.6 mph48%30.01 "Hg12 mi
7:50 PM84 °FSunny.3 mph45%30.01 "Hg19 mi
6:50 PM91 °FSunny.7 mph34%30.01 "Hg25 mi
5:50 PM95 °FSunny.14 mph28%30.04 "Hg25 mi
Weather by CustomWeather, © 2015

See weather overviewHow to use our weather pages